Georgetown, DE

7:26 AM EST on February 25, 2017 (GMT -0500)
Sussex County

Weather History for KGED - November, 2012

Change the Weather History Date:

Monday, November 5, 2012

  Actual Average Record
Temperature  
Mean Temperature 41 °F 52 °F  
Max Temperature 48 °F 62 °F 82 °F (2003)
Min Temperature 34 °F 41 °F 22 °F (1952)
Degree Days  
Heating Degree Days 24 13  
Month to date heating degree days 100 64  
Since 1 July heating degree days 318 350  
Cooling Degree Days 0 0  
Month to date cooling degree days 0 0  
Year to date cooling degree days 1616 1194  
Moisture  
Dew Point 27 °F    
Average Humidity 59    
Maximum Humidity 75    
Minimum Humidity 42    
Precipitation  
Precipitation 0.00 in 0.11 in 0.86 in (1950)
Month to date precipitation T 0.60  
Year to date precipitation 33.00 37.72  
Sea Level Pressure  
Sea Level Pressure 30.09 in    
Wind  
Wind Speed 4 mph (NNW)    
Max Wind Speed 13 mph    
Max Gust Speed 21 mph    
Visibility 10 miles    
Events      
T = Trace of Precipitation, MM = Missing Value Source: NWS Daily Summary

Daily Weather History Graph

Daily Weather History Graph

Search for Another Location

Airport or City:

Trip Planner

Search our weather history database for the weather conditions in past years. The results will help you decide how hot, cold, wet, or windy it might be!

Date:

Astronomy

Nov. 05, 2012 Rise Set
Actual Time 6:33 AM EST 4:56 PM EST
Civil Twilight 6:05 AM EST 5:24 PM EST
Nautical Twilight 5:33 AM EST 5:55 PM EST
Astronomical Twilight 5:02 AM EST 6:26 PM EST
Moon 10:31 PM EST (11/5) 11:51 AM EST (11/5)
Length of Visible Light 11h 18m
Length of Day
10h 23m
Waning Gibbous, 63% of the Moon is Illuminated
Nov 5
Waning Gibbous
Nov 6
Last Quarter
Nov 13
New
Nov 20
First Quarter
Nov 28
Full

Hourly Weather History & Observations

Time (EST) Temp. Windchill Dew Point Humidity Pressure Visibility Wind Dir Wind Speed Gust Speed Precip Events Conditions
12:54 AM 37.0 °F - 27.0 °F 67% 30.04 in 10.0 mi Calm Calm - N/A   Clear
1:54 AM 36.0 °F 33.3 °F 28.0 °F 73% 30.03 in 10.0 mi NW 3.5 mph - N/A   Mostly Cloudy
2:54 AM 37.9 °F - 28.0 °F 68% 30.01 in 10.0 mi Calm Calm - N/A   Overcast
3:54 AM 39.0 °F 36.8 °F 28.9 °F 67% 30.01 in 10.0 mi NW 3.5 mph - N/A   Overcast
4:54 AM 39.9 °F - 28.9 °F 65% 30.03 in 10.0 mi Calm Calm - N/A   Overcast
5:54 AM 39.9 °F 36.7 °F 28.9 °F 65% 30.04 in 10.0 mi Variable 4.6 mph - N/A   Overcast
7:54 AM 41.0 °F 38.0 °F 28.0 °F 60% 30.08 in 10.0 mi NNW 4.6 mph - N/A   Overcast
8:38 AM 41.0 °F 36.4 °F 28.4 °F 61% 30.08 in 10.0 mi North 6.9 mph - N/A   Overcast
8:54 AM 41.0 °F 34.7 °F 28.9 °F 62% 30.09 in 10.0 mi North 10.4 mph - N/A   Overcast
9:36 AM 41.0 °F 35.8 °F 28.4 °F 61% 30.08 in 10.0 mi NNW 8.1 mph - N/A   Overcast
9:54 AM 41.0 °F 36.4 °F 28.0 °F 60% 30.09 in 10.0 mi North 6.9 mph 18.4 mph N/A   Overcast
10:54 AM 42.1 °F 37.7 °F 27.0 °F 55% 30.09 in 10.0 mi NW 6.9 mph - N/A   Overcast
11:54 AM 43.0 °F 38.8 °F 27.0 °F 53% 30.09 in 10.0 mi Variable 6.9 mph - N/A   Overcast
12:54 PM 46.0 °F 41.9 °F 25.0 °F 44% 30.06 in 10.0 mi NNW 8.1 mph 18.4 mph N/A   Clear
1:54 PM 46.9 °F - 26.1 °F 44% 30.05 in 10.0 mi NNW 11.5 mph 18.4 mph N/A   Clear
2:54 PM 46.9 °F - 26.1 °F 44% 30.06 in 10.0 mi North 10.4 mph - N/A   Clear
3:54 PM 46.0 °F 42.5 °F 26.1 °F 46% 30.08 in 10.0 mi NNW 6.9 mph - N/A   Clear
4:54 PM 43.0 °F 40.3 °F 27.0 °F 53% 30.09 in 10.0 mi North 4.6 mph - N/A   Clear
5:54 PM 41.0 °F - 27.0 °F 57% 30.11 in 10.0 mi Calm Calm - N/A   Clear
6:54 PM 39.0 °F - 27.0 °F 62% 30.13 in 10.0 mi Calm Calm - N/A   Clear
7:54 PM 39.0 °F 36.8 °F 26.1 °F 60% 30.14 in 10.0 mi NNW 3.5 mph - N/A   Clear
8:54 PM 37.0 °F 34.5 °F 26.1 °F 65% 30.16 in 10.0 mi NNW 3.5 mph - N/A   Clear
9:54 PM 36.0 °F 33.3 °F 26.1 °F 67% 30.17 in 10.0 mi North 3.5 mph - N/A   Clear
10:54 PM 36.0 °F - 25.0 °F 64% 30.18 in 10.0 mi Calm Calm - N/A   Clear
11:54 PM 34.0 °F - 25.0 °F 70% 30.18 in 10.0 mi Calm Calm - N/A   Partly Cloudy